Location: Pollockville
(51.1000°N, 111.5833°W)
Time: 03:07:33
(UTC+00:00)

Tiangong - Visible Passes

Search period start: 07 December 2021 00:00
Search period end: 17 December 2021 00:00
Orbit: 379 x 384 km, 41.5° (Epoch: 06 December)

Date Brightness Start Highest point End Pass type
(mag) Time Alt. Az. Time Alt. Az. Time Alt. Az.
12 Dec 3.7 01:20:34 10° S 01:21:50 12° SSE 01:22:19 12° SSE visible
13 Dec 3.8 01:55:37 10° SW 01:56:45 14° SSW 01:56:45 14° SSW visible
14 Dec 3.7 00:55:24 10° SSW 00:57:06 14° S 00:58:49 10° SE visible
14 Dec 3.8 23:55:29 10° S 23:56:44 12° SSE 23:57:58 10° SE visible
15 Dec 3.6 01:30:52 10° SW 01:32:43 15° S 01:33:26 14° SSE visible
16 Dec 3.8 00:30:26 10° SW 00:32:17 15° S 00:34:10 10° SE visible
16 Dec 4.1 02:07:15 10° SW 02:07:54 11° SSW 02:07:54 11° SSW visible
